RH
51 55 59 61 61 63 65 65 66 68 70 71 72 73 75 77 81 85 84 81 77 72 69 65 61 60 59 58 57 55 53 48 41 49 70 71 57 57 54 35 22 19
49 52 57 61 62 61 60 62 64 66 69 73 74 73 73 76 79 82 84 83 80 75 73 69 63 60 60 58 57 57 56 54 47 51 67 71 70 77 63 34 21 20
54 54 55 56 59 62 60 59 60 63 67 73 77 76 74 76 77 80 83 84 83 79 75 73 69 63 61 60 59 58 58 56 50 51 60 65 79 88 63 33 24 22
61 62 63 57 53 57 62 61 58 60 65 71 80 81 77 76 76 78 81 83 83 82 78 76 73 69 67 65 62 59 58 56 51 52 54 60 84 93 64 37 29 23
66 64 67 66 58 53 60 66 62 61 64 70 80 86 84 80 77 77 80 83 83 82 80 78 75 74 73 69 66 61 59 57 53 54 55 61 85 93 69 44 33 27
75 68 65 69 68 60 57 64 68 68 69 73 82 89 90 85 80 78 80 82 83 82 81 79 76 75 73 71 68 64 62 60 56 58 57 61 83 95 75 49 36 31
81 79 72 68 68 65 60 60 67 72 74 77 83 89 94 91 85 82 81 82 84 83 82 80 77 75 73 71 69 67 68 64 60 62 62 63 84 99 81 52 40 36
81 84 83 76 69 66 61 59 65 72 74 78 81 86 95 96 91 86 84 84 84 84 84 82 79 76 74 72 69 68 70 67 62 63 64 69 88 102 85 58 45 39
82 82 84 84 78 72 65 62 68 74 77 80 81 84 92 98 97 91 87 87 86 85 86 85 82 77 74 72 70 69 68 68 65 61 63 75 91 101 90 66 49 41
84 83 82 82 80 78 72 70 75 80 82 84 84 85 89 96 100 97 91 89 88 88 87 87 85 79 74 73 71 69 67 68 67 62 64 76 90 99 94 71 51 43
85 85 82 79 79 78 75 77 82 85 87 89 88 88 89 94 99 100 96 93 90 90 90 89 88 83 77 73 71 70 68 67 70 69 67 72 86 99 97 74 54 48
86 85 83 81 82 82 80 82 85 88 92 93 92 93 93 94 98 100 99 96 93 93 92 92 92 89 82 75 73 73 71 70 73 74 71 73 86 100 98 77 59 54
89 90 90 88 86 87 86 86 87 91 96 97 95 96 96 96 98 99 100 99 96 95 95 95 95 93 87 80 75 75 74 73 75 78 79 81 90 101 98 80 62 56
95 96 96 93 91 91 90 88 88 90 95 97 95 94 94 95 95 95 98 100 99 98 97 98 97 95 92 85 79 77 77 76 77 81 86 90 97 101 97 82 65 59
99 99 98 96 95 96 94 90 87 88 91 94 93 92 93 95 95 95 98 100 100 100 99 99 99 97 94 90 85 82 81 81 83 87 92 97 99 101 98 85 68 63
100 100 99 98 99 99 96 90 86 85 87 88 89 90 92 96 99 98 98 99 100 100 99 99 99 98 98 96 91 89 88 88 90 93 97 100 99 100 100 89 72 67
100 99 98 99 100 100 97 93 92 94 94 91 89 89 92 97 99 99 99 99 100 100 100 100 100 99 100 99 97 96 95 95 97 98 99 100 100 100 100 93 79 70
99 97 96 98 100 100 98 98 99 100 98 93 88 90 96 98 96 98 100 100 100 100 99 99 100 100 100 100 100 99 99 100 100 100 100 101 100 100 100 98 86 73
98 96 96 98 99 100 100 99 101 99 92 87 88 93 99 98 96 97 100 100 100 100 99 97 98 100 100 100 100 100 100 101 100 100 100 100 100 100 100 100 92 77
96 96 97 99 99 100 100 99 101 98 86 83 93 100 99 99 98 99 100 100 100 100 100 98 97 98 100 100 100 100 100 100 99 100 100 99 101 100 99 101 95 79
98 97 98 99 100 100 100 99 101 96 84 83 95 101 99 100 100 99 100 100 100 100 101 100 97 97 99 100 100 100 100 99 100 100 100 100 100 99 100 102 94 79
100 99 99 100 100 99 100 100 99 97 91 92 98 100 100 100 99 99 100 100 100 100 100 100 99 99 100 100 100 100 100 100 100 100 100 100 99 99 101 101 93 80
99 101 100 100 100 100 101 99 96 95 96 98 100 99 100 100 99 99 100 100 100 100 100 100 100 99 100 100 100 100 100 100 100 100 100 99 99 100 101 99 92 81
96 100 100 100 100 100 100 95 89 90 95 99 100 100 100 100 100 100 100 100 100 100 99 100 100 100 101 100 100 100 100 100 100 100 100 99 99 100 100 99 93 86
95 100 100 99 100 100 96 86 79 84 93 98 100 100 100 100 100 100 100 99 100 100 100 100 100 101 100 100 100 100 99 100 100 100 100 99 99 100 100 100 97 95
95 99 100 100 100 96 85 75 77 88 97 99 97 98 100 100 100 100 100 99 99 100 100 100 100 100 100 100 100 100 99 100 100 100 100 99 100 100 100 99 99 99
Wind_Speed
34 32 31 31 31 30 30 31 31 31 31 29 29 30 31 32 30 27 27 29 30 30 30 32 34 35 35 36 37 39 40 41 41 39 36 35 34 34 34 35 34 33
34 33 32 32 32 32 31 30 30 30 31 31 30 29 29 30 30 28 27 27 28 29 29 30 33 35 36 36 36 38 40 41 41 41 38 36 34 34 35 35 34 33
36 35 33 32 32 32 31 31 30 30 30 31 31 30 29 29 28 28 28 27 28 29 29 29 32 34 35 36 36 37 39 41 42 42 39 37 35 35 35 35 34 33
39 37 36 34 32 31 31 30 30 30 30 31 31 30 29 28 28 28 28 28 28 29 29 29 30 32 34 35 36 37 39 40 41 41 39 37 36 35 35 35 34 33
40 39 38 37 34 32 30 29 28 28 29 30 30 29 29 28 28 28 28 28 28 29 30 30 30 30 32 34 36 38 39 39 40 40 40 39 37 36 35 35 35 34
40 39 38 38 37 35 33 31 29 28 28 29 29 28 28 28 28 28 28 28 29 29 30 31 31 30 31 33 35 38 39 39 39 40 41 41 39 37 36 36 35 34
41 40 38 38 38 37 35 33 31 30 29 29 29 28 27 28 29 29 28 28 28 28 29 31 32 31 31 33 35 38 39 39 39 40 42 42 40 38 37 37 36 34
42 41 40 39 38 37 36 35 33 32 31 30 30 29 28 28 29 29 28 28 28 29 29 30 32 32 32 33 35 37 38 38 40 41 42 42 41 39 37 37 36 34
42 42 41 40 38 37 36 34 34 33 33 31 31 30 29 28 29 29 29 29 29 29 29 29 31 33 33 34 35 37 37 38 40 42 43 42 40 39 38 37 36 34
43 42 42 40 39 37 36 34 33 33 33 32 31 30 30 29 29 29 30 30 30 31 30 29 30 33 34 35 35 37 37 36 38 42 43 41 38 38 38 37 36 33
44 43 43 41 38 37 36 34 33 32 32 31 30 30 30 30 31 30 30 32 32 32 31 30 30 32 35 37 37 37 37 36 37 40 42 40 38 37 37 36 35 32
45 44 43 40 38 37 36 34 32 31 32 31 30 30 30 31 33 32 31 33 34 33 31 30 29 31 34 37 38 37 36 37 38 39 41 40 38 37 36 35 34 31
43 42 41 39 37 37 36 33 32 31 32 32 30 30 31 32 33 34 33 34 35 34 32 30 29 30 33 37 39 38 37 38 39 39 40 40 38 36 35 34 33 30
41 40 39 37 36 36 35 33 31 31 31 31 30 30 30 31 32 33 34 33 35 35 33 31 30 30 32 36 39 40 39 39 39 39 39 39 38 36 34 34 33 31
39 38 38 36 36 35 34 32 30 30 31 31 31 30 30 31 32 33 34 33 33 35 34 32 31 31 32 34 38 39 39 39 39 38 38 37 37 36 35 34 34 31
38 38 37 37 35 34 32 31 30 31 32 32 32 30 30 31 32 33 34 31 31 34 34 33 33 31 31 32 34 36 37 37 38 38 37 36 36 36 36 34 33 31
38 37 37 36 34 33 32 30 31 33 33 32 31 30 30 31 32 33 33 30 29 31 33 34 33 32 30 29 31 33 35 35 36 36 35 35 36 36 35 33 32 30
37 37 36 35 34 33 31 31 33 33 32 31 30 29 30 31 32 33 32 29 27 28 31 32 33 32 29 28 28 31 32 33 34 34 34 34 34 35 35 32 31 29
36 36 36 35 35 33 31 32 33 33 31 30 29 29 29 32 33 32 31 28 25 26 28 29 30 30 29 28 27 28 29 30 31 31 32 33 33 34 34 32 30 29
36 36 35 35 35 33 32 33 33 32 30 29 29 29 29 33 34 31 29 27 25 25 25 26 27 28 28 27 26 25 25 28 29 28 28 30 31 32 32 30 30 28
35 35 35 35 34 33 33 33 32 30 29 29 29 29 31 33 32 29 28 27 24 23 23 24 25 26 26 25 24 23 22 26 29 28 26 26 28 30 30 28 28 27
35 34 34 34 34 33 34 33 31 29 29 28 29 30 32 31 28 27 27 26 23 21 22 23 23 23 23 22 21 21 21 25 30 30 28 27 27 28 28 27 26 25
34 33 33 34 33 34 35 32 29 29 29 29 29 31 31 28 25 26 27 24 22 21 20 21 21 20 19 18 18 19 20 24 29 31 30 29 27 25 24 25 25 25
33 32 32 33 34 35 34 30 27 28 30 30 30 30 29 26 26 28 27 24 21 19 19 19 18 16 15 15 15 17 20 24 28 30 30 30 29 25 22 22 24 24
30 30 31 32 34 35 32 28 27 28 30 31 30 29 29 29 30 29 27 23 19 17 16 17 16 14 13 13 14 16 19 24 27 30 30 31 31 28 24 21 22 22
27 29 30 31 33 33 28 25 27 29 30 30 29 29 30 32 31 29 26 22 17 15 14 15 14 12 10 11 12 15 19 23 26 29 31 31 31 29 26 23 22 21
Wind_Direction
327 324 321 318 317 317 318 319 320 319 316 313 307 302 299 296 292 286 279 275 272 269 268 267 265 263 262 260 258 256 253 248 245 246 249 249 247 246 245 243 246 249
327 326 322 318 315 314 315 315 315 315 314 311 307 303 300 297 293 285 278 274 270 266 265 265 265 263 262 260 258 256 253 249 245 244 246 247 247 246 243 241 243 248
325 325 325 322 318 314 313 312 310 311 311 308 306 302 298 295 291 284 277 273 270 266 262 261 263 263 262 261 259 257 254 250 246 244 244 247 249 247 241 239 242 246
322 322 322 323 323 319 315 311 307 306 306 305 304 300 295 292 288 282 275 272 270 266 262 260 260 262 262 261 259 257 254 251 247 245 243 245 250 248 240 238 242 245
319 320 321 320 322 322 318 312 306 302 300 300 300 298 294 289 285 280 273 269 268 267 265 261 259 259 260 260 259 255 253 249 246 243 240 243 248 247 239 236 239 243
316 318 319 318 318 320 319 315 308 301 298 297 297 296 293 288 283 279 273 268 266 266 266 263 259 258 257 257 256 254 251 248 245 242 240 242 248 248 239 234 237 241
315 316 317 317 317 317 317 316 312 306 301 299 296 294 294 290 282 278 274 268 264 263 264 264 261 257 255 254 253 251 250 247 244 242 241 242 247 248 240 233 235 239
314 314 314 315 315 314 315 315 314 310 306 301 297 294 294 290 282 277 275 269 263 260 260 262 261 258 255 253 252 251 249 246 242 240 240 242 246 248 241 234 235 238
314 314 314 313 313 313 314 313 313 312 309 304 299 295 293 290 284 276 272 269 264 259 257 258 259 258 255 252 251 250 248 245 242 240 240 242 247 249 242 234 234 237
313 314 314 313 312 313 313 313 313 313 312 308 302 297 293 291 288 278 268 266 264 259 255 255 256 257 255 252 251 249 247 246 244 241 241 244 249 250 243 235 234 237
313 313 314 314 313 314 314 313 313 314 315 311 305 300 295 291 292 284 269 261 262 260 255 253 253 254 254 252 250 249 247 246 244 241 242 245 249 249 242 235 234 237
313 313 314 314 313 314 314 313 313 314 317 315 308 303 298 292 292 292 277 261 258 260 257 252 251 252 253 253 250 248 246 244 243 242 243 246 248 247 240 233 232 236
311 311 313 313 312 313 314 313 313 314 317 317 312 306 303 298 297 300 290 267 255 257 257 253 250 249 250 251 249 247 245 243 243 242 243 245 247 245 237 230 229 232
309 310 311 312 312 313 314 313 313 315 317 318 314 308 306 306 304 305 300 277 257 254 256 254 251 248 247 248 246 245 244 243 244 244 244 246 246 242 234 227 226 229
309 310 311 312 313 314 314 314 314 315 316 316 313 309 309 310 308 307 303 285 261 253 255 253 251 248 246 245 245 244 243 243 244 245 245 246 245 240 233 227 225 227
310 311 312 313 315 315 315 315 315 315 314 313 311 310 311 313 310 307 302 287 264 253 254 254 252 250 248 246 245 245 245 244 245 245 245 246 244 239 233 229 225 226
311 312 314 315 316 316 315 316 317 316 314 312 311 312 314 314 311 307 301 288 267 255 255 255 254 252 250 248 246 245 245 245 245 246 245 245 244 240 235 230 226 226
312 315 316 316 316 315 314 316 317 315 313 312 312 314 315 314 311 308 302 289 270 258 256 257 257 256 252 249 246 245 246 246 246 246 245 244 243 240 237 233 228 226
315 316 316 315 314 313 313 315 315 312 311 312 314 316 315 313 312 310 304 292 274 261 257 258 260 259 254 250 246 244 244 245 246 245 243 244 244 241 238 234 229 226
316 315 314 313 312 311 311 311 310 309 309 313 317 317 314 312 312 311 307 296 280 265 259 259 260 260 255 250 246 242 236 236 243 245 244 245 244 241 239 234 229 226
314 313 312 311 309 309 308 307 306 307 310 315 318 316 311 310 312 312 309 300 285 269 260 258 260 260 256 250 245 240 230 227 235 242 244 246 244 241 239 233 228 225
312 311 310 308 308 307 305 303 305 308 312 316 316 312 309 311 313 313 313 304 288 272 261 258 260 258 256 252 246 241 231 223 229 236 240 244 244 241 238 231 224 222
310 310 308 307 306 305 303 302 306 309 312 314 312 309 310 313 314 314 313 306 289 274 263 260 260 257 254 252 249 243 229 220 225 231 235 241 243 241 237 227 220 220
310 309 308 305 305 304 302 303 307 310 311 313 311 310 312 314 315 314 312 306 291 275 265 262 260 255 250 247 247 241 225 217 224 228 230 236 240 240 235 223 217 219
310 309 308 305 304 303 301 304 308 310 311 313 312 313 314 314 315 313 309 304 292 275 266 263 259 254 248 243 241 234 220 215 221 226 227 231 234 236 234 225 218 219
309 308 308 306 303 302 302 306 308 309 311 313 314 314 314 313 313 311 307 302 292 274 266 264 261 257 251 244 239 229 217 214 219 223 226 228 230 231 232 227 221 219